sat.trackr.live / text

‹ back to catalog

STARLINK-5462

NORAD 55674 · 2023-021AY

PAYLOAD ACTIVE UNKNOWN

§ Identity

Operator
Country
US
Launch date
2023-02-17
Launch site
AFWTR
Launch vehicle
Mass (kg)
RCS (m²)

Purposes: comms

External: N2YO · Heavens-Above · Gunter

§ Orbital elements

Epoch: 2026-09-20T14:23:08.263680Z

Period
96.11 min
Inclination
70.0021°
Eccentricity
0.0002760
Mean motion
14.98349748 rev/d
Perigee alt
570.1 km
Apogee alt
573.9 km
Semi-major
6,950.1 km
B*
2.9526e-4
RAAN
32.8763°
Arg perigee
265.7105°
Mean anomaly
94.3739°
Rev number
19,848

§ Raw data

STARLINK-54621 55674U 23021AY  26263.59940120  .00003433  00000+0  29526-3 0  99932 55674  70.0021  32.8763 0002760 265.7105  94.3739 14.98349748198481

JSON: /api/v1/satellites/55674 · /tle

For live sub-satellite position, see the globe view (requires WebGL).

§ Visibility from observer

Set your observer location to see the next 7 days of passes ≥ 10°. The values pass through the URL so the page stays shareable.

No JS? Fill the form by hand. The geolocation button needs JavaScript.